Time,TemperatureF,DewpointF,PressureIn,WindDirection,WindDirectionDegrees,WindSpeedMPH,WindSpeedGustMPH,Humidity,HourlyPrecipIn,Conditions,Clouds,dailyrainin,SoftwareType,DateUTC
2013-05-24 00:00:00,56.5,53.0,29.77,SW,226,0.0,-999.0,88,-99.99,,,0.12,weatherlink.com 1.10,2013-05-24 04:00:00,
2013-05-24 00:15:00,56.5,53.0,29.77,South,172,0.0,-999.0,87,-99.99,,,0.00,weatherlink.com 1.10,2013-05-24 04:15:00,
2013-05-24 00:30:00,56.2,53.0,29.76,South,172,0.0,-999.0,88,-99.99,,,0.00,weatherlink.com 1.10,2013-05-24 04:30:00,
2013-05-24 00:45:00,55.9,52.0,29.77,SE,143,0.0,-999.0,88,-99.99,,,0.00,weatherlink.com 1.10,2013-05-24 04:45:00,
2013-05-24 01:00:00,55.7,52.0,29.77,SE,128,0.0,-999.0,86,-99.99,,,0.00,weatherlink.com 1.10,2013-05-24 05:00:00,
2013-05-24 01:15:00,55.4,51.0,29.77,SSE,167,0.0,-999.0,86,-99.99,,,0.00,weatherlink.com 1.10,2013-05-24 05:15:00,
2013-05-24 01:30:00,55.3,52.0,29.77,ESE,107,0.0,-999.0,88,-99.99,,,0.00,weatherlink.com 1.10,2013-05-24 05:30:00,
2013-05-24 01:45:00,54.8,51.0,29.76,SSE,161,0.0,-999.0,88,-99.99,,,0.00,weatherlink.com 1.10,2013-05-24 05:45:00,
2013-05-24 02:00:00,54.1,51.0,29.76,South,186,0.0,-999.0,89,-99.99,,,0.00,weatherlink.com 1.10,2013-05-24 06:00:00,
2013-05-24 02:15:00,53.6,51.0,29.77,SSE,158,0.0,-999.0,90,-99.99,,,0.00,weatherlink.com 1.10,2013-05-24 06:15:00,
2013-05-24 02:30:00,53.5,50.0,29.76,South,172,0.0,-999.0,88,-99.99,,,0.00,weatherlink.com 1.10,2013-05-24 06:30:00,
2013-05-24 02:45:00,53.3,50.0,29.77,SSW,212,0.0,-999.0,88,-99.99,,,0.00,weatherlink.com 1.10,2013-05-24 06:45:00,
2013-05-24 03:00:00,53.6,50.0,29.75,WSW,253,0.0,-999.0,86,-99.99,,,0.00,weatherlink.com 1.10,2013-05-24 07:00:00,
2013-05-24 03:15:00,53.6,49.0,29.74,SE,130,0.0,-999.0,84,-99.99,,,0.00,weatherlink.com 1.10,2013-05-24 07:15:00,
2013-05-24 03:30:00,53.5,49.0,29.74,SSE,167,0.0,-999.0,84,-99.99,,,0.00,weatherlink.com 1.10,2013-05-24 07:30:00,
2013-05-24 03:45:00,53.5,49.0,29.74,ENE,61,0.0,-999.0,84,-99.99,,,0.00,weatherlink.com 1.10,2013-05-24 07:45:00,
2013-05-24 04:00:00,53.8,49.0,29.75,ESE,104,0.0,-999.0,84,-99.99,,,0.00,weatherlink.com 1.10,2013-05-24 08:00:00,
2013-05-24 04:15:00,53.8,49.0,29.74,ENE,69,0.0,-999.0,85,-99.99,,,0.00,weatherlink.com 1.10,2013-05-24 08:15:00,
2013-05-24 04:30:00,53.6,49.0,29.73,West,278,0.0,-999.0,85,-99.99,,,0.00,weatherlink.com 1.10,2013-05-24 08:30:00,
2013-05-24 04:45:00,53.5,50.0,29.73,SSW,210,0.0,-999.0,86,-99.99,,,0.00,weatherlink.com 1.10,2013-05-24 08:45:00,
2013-05-24 05:00:00,53.3,50.0,29.72,WSW,241,0.0,-999.0,89,-99.99,,,0.00,weatherlink.com 1.10,2013-05-24 09:00:00,
2013-05-24 05:15:00,52.9,50.0,29.72,SSE,150,0.0,-999.0,90,-99.99,,,0.00,weatherlink.com 1.10,2013-05-24 09:15:00,
2013-05-24 05:30:00,52.6,50.0,29.73,East,99,0.0,-999.0,91,-99.99,,,0.00,weatherlink.com 1.10,2013-05-24 09:30:00,
2013-05-24 05:45:00,52.3,50.0,29.73,ESE,106,0.0,-999.0,91,-99.99,,,0.00,weatherlink.com 1.10,2013-05-24 09:45:00,
2013-05-24 06:00:00,52.2,50.0,29.72,SE,145,0.0,-999.0,92,-99.99,,,0.00,weatherlink.com 1.10,2013-05-24 10:00:00,
2013-05-24 06:15:00,51.9,51.0,29.75,SSE,157,0.0,-999.0,95,-99.99,,,0.00,weatherlink.com 1.10,2013-05-24 10:15:00,
2013-05-24 06:30:00,51.6,51.0,29.80,SE,126,0.0,-999.0,97,-99.99,,,0.00,weatherlink.com 1.10,2013-05-24 10:30:00,
2013-05-24 06:45:00,51.7,51.0,29.82,South,185,0.0,-999.0,98,-99.99,,,0.00,weatherlink.com 1.10,2013-05-24 10:45:00,
2013-05-24 07:00:00,52.0,52.0,29.83,SSE,162,0.0,-999.0,98,-99.99,,,0.00,weatherlink.com 1.10,2013-05-24 11:00:00,
2013-05-24 07:15:00,52.5,51.0,29.83,South,169,0.0,-999.0,96,-99.99,,,0.01,weatherlink.com 1.10,2013-05-24 11:15:00,
2013-05-24 07:30:00,52.5,51.0,29.85,East,80,0.0,-999.0,94,-99.99,,,0.01,weatherlink.com 1.10,2013-05-24 11:30:00,
2013-05-24 07:45:00,52.3,50.0,29.86,ESE,123,0.0,-999.0,90,-99.99,,,0.01,weatherlink.com 1.10,2013-05-24 11:45:00,
2013-05-24 08:00:00,51.6,49.0,29.87,SSE,152,0.0,-999.0,90,-99.99,,,0.01,weatherlink.com 1.10,2013-05-24 12:00:00,
2013-05-24 08:15:00,51.3,49.0,29.88,NE,44,0.0,-999.0,90,-99.99,,,0.01,weatherlink.com 1.10,2013-05-24 12:15:00,
2013-05-24 08:30:00,50.7,48.0,29.90,SE,141,0.0,-999.0,89,-99.99,,,0.01,weatherlink.com 1.10,2013-05-24 12:30:00,
2013-05-24 08:45:00,50.2,46.0,29.92,SE,145,0.0,-999.0,86,-99.99,,,0.01,weatherlink.com 1.10,2013-05-24 12:45:00,
2013-05-24 09:00:00,49.9,46.0,29.93,SE,144,0.0,-999.0,85,-99.99,,,0.01,weatherlink.com 1.10,2013-05-24 13:00:00,
2013-05-24 09:15:00,50.4,45.0,29.94,ESE,103,0.0,-999.0,81,-99.99,,,0.01,weatherlink.com 1.10,2013-05-24 13:15:00,
2013-05-24 09:30:00,50.8,44.0,29.94,East,79,0.0,-999.0,78,-99.99,,,0.01,weatherlink.com 1.10,2013-05-24 13:30:00,
2013-05-24 09:45:00,50.2,44.0,29.96,WSW,241,0.0,-999.0,78,-99.99,,,0.01,weatherlink.com 1.10,2013-05-24 13:45:00,
2013-05-24 10:00:00,48.5,43.0,29.98,NNE,17,0.0,-999.0,80,-99.99,,,0.01,weatherlink.com 1.10,2013-05-24 14:00:00,
2013-05-24 10:15:00,47.6,43.0,29.99,North,0,0.0,-999.0,84,-99.99,,,0.01,weatherlink.com 1.10,2013-05-24 14:15:00,
2013-05-24 10:31:00,46.4,42.0,30.00,South,182,0.0,-999.0,84,-99.99,,,0.01,weatherlink.com 1.10,2013-05-24 14:31:00,
2013-05-24 10:46:00,45.7,42.0,30.02,SSE,164,0.0,-999.0,85,-99.99,,,0.01,weatherlink.com 1.10,2013-05-24 14:46:00,
2013-05-24 11:01:00,45.5,43.0,30.02,NNW,339,0.0,-999.0,89,-99.99,,,0.01,weatherlink.com 1.10,2013-05-24 15:01:00,
2013-05-24 11:16:00,46.5,42.0,30.02,ENE,75,0.0,-999.0,85,-99.99,,,0.01,weatherlink.com 1.10,2013-05-24 15:16:00,
2013-05-24 11:31:00,47.9,41.0,30.02,ESE,106,0.0,-999.0,78,-99.99,,,0.01,weatherlink.com 1.10,2013-05-24 15:31:00,
2013-05-24 11:46:00,48.8,42.0,30.02,West,277,0.0,-999.0,78,-99.99,,,0.01,weatherlink.com 1.10,2013-05-24 15:46:00,
2013-05-24 12:01:00,50.5,41.0,30.02,WSW,250,0.0,-999.0,71,-99.99,,,0.01,weatherlink.com 1.10,2013-05-24 16:01:00,
2013-05-24 12:16:00,52.0,45.0,30.02,North,6,0.0,-999.0,76,-99.99,,,0.01,weatherlink.com 1.10,2013-05-24 16:16:00,
2013-05-24 12:31:00,53.8,43.0,30.01,West,260,0.0,-999.0,66,-99.99,,,0.01,weatherlink.com 1.10,2013-05-24 16:31:00,
2013-05-24 12:46:00,54.7,43.0,30.02,WNW,288,0.0,-999.0,64,-99.99,,,0.01,weatherlink.com 1.10,2013-05-24 16:46:00,
2013-05-24 13:01:00,55.6,43.0,30.00,SSW,199,0.0,-999.0,62,-99.99,,,0.01,weatherlink.com 1.10,2013-05-24 17:01:00,
2013-05-24 13:16:00,56.3,45.0,30.01,ENE,72,0.0,-999.0,67,-99.99,,,0.01,weatherlink.com 1.10,2013-05-24 17:16:00,
2013-05-24 13:31:00,56.5,43.0,30.00,SSW,200,0.0,-999.0,60,-99.99,,,0.01,weatherlink.com 1.10,2013-05-24 17:31:00,
2013-05-24 13:46:00,56.9,42.0,30.01,NNW,339,0.0,-999.0,59,-99.99,,,0.01,weatherlink.com 1.10,2013-05-24 17:46:00,
2013-05-24 14:01:00,57.0,41.0,30.01,NNE,24,0.0,-999.0,55,-99.99,,,0.01,weatherlink.com 1.10,2013-05-24 18:01:00,
2013-05-24 14:16:00,57.5,42.0,30.01,SE,130,0.0,-999.0,56,-99.99,,,0.01,weatherlink.com 1.10,2013-05-24 18:16:00,
2013-05-24 14:31:00,58.0,40.0,30.01,East,95,0.0,-999.0,52,-99.99,,,0.01,weatherlink.com 1.10,2013-05-24 18:31:00,
2013-05-24 14:46:00,58.0,39.0,30.01,SE,124,0.0,-999.0,50,-99.99,,,0.01,weatherlink.com 1.10,2013-05-24 18:46:00,
2013-05-24 15:01:00,58.6,39.0,30.01,North,1,0.0,-999.0,49,-99.99,,,0.01,weatherlink.com 1.10,2013-05-24 19:01:00,
2013-05-24 15:16:00,58.7,39.0,30.01,South,175,0.0,-999.0,49,-99.99,,,0.01,weatherlink.com 1.10,2013-05-24 19:16:00,
2013-05-24 15:31:00,58.9,38.0,30.01,ESE,103,0.0,-999.0,46,-99.99,,,0.01,weatherlink.com 1.10,2013-05-24 19:31:00,
2013-05-24 15:46:00,58.7,37.0,30.01,East,85,0.0,-999.0,44,-99.99,,,0.01,weatherlink.com 1.10,2013-05-24 19:46:00,
2013-05-24 16:01:00,59.2,36.0,30.01,SSE,155,0.0,-999.0,43,-99.99,,,0.01,weatherlink.com 1.10,2013-05-24 20:01:00,
2013-05-24 16:16:00,59.3,37.0,30.01,SE,124,0.0,-999.0,44,-99.99,,,0.01,weatherlink.com 1.10,2013-05-24 20:16:00,
2013-05-24 16:31:00,59.0,36.0,30.02,NW,305,0.0,-999.0,43,-99.99,,,0.01,weatherlink.com 1.10,2013-05-24 20:31:00,
2013-05-24 16:46:00,59.2,36.0,30.02,North,7,0.0,-999.0,42,-99.99,,,0.01,weatherlink.com 1.10,2013-05-24 20:46:00,
2013-05-24 17:01:00,59.2,36.0,30.01,SSW,203,0.0,-999.0,42,-99.99,,,0.01,weatherlink.com 1.10,2013-05-24 21:01:00,
2013-05-24 17:16:00,58.6,35.0,30.02,SW,229,0.0,-999.0,41,-99.99,,,0.01,weatherlink.com 1.10,2013-05-24 21:16:00,
2013-05-24 17:31:00,58.6,37.0,30.02,South,178,0.0,-999.0,44,-99.99,,,0.01,weatherlink.com 1.10,2013-05-24 21:31:00,
2013-05-24 17:46:00,58.4,37.0,30.03,ESE,113,0.0,-999.0,45,-99.99,,,0.01,weatherlink.com 1.10,2013-05-24 21:46:00,
2013-05-24 18:01:00,57.8,37.0,30.03,SSE,157,0.0,-999.0,46,-99.99,,,0.01,weatherlink.com 1.10,2013-05-24 22:01:00,
2013-05-24 18:16:00,56.5,37.0,30.04,SSE,165,0.0,-999.0,48,-99.99,,,0.01,weatherlink.com 1.10,2013-05-24 22:16:00,
2013-05-24 18:31:00,55.9,37.0,30.04,SE,145,0.0,-999.0,49,-99.99,,,0.01,weatherlink.com 1.10,2013-05-24 22:31:00,
2013-05-24 18:46:00,55.7,37.0,30.04,SSE,148,0.0,-999.0,49,-99.99,,,0.01,weatherlink.com 1.10,2013-05-24 22:46:00,
2013-05-24 19:01:00,54.4,34.0,30.04,ENE,66,0.0,-999.0,47,-99.99,,,0.01,weatherlink.com 1.10,2013-05-24 23:01:00,
2013-05-24 19:16:00,53.5,34.0,30.05,South,191,0.0,-999.0,48,-99.99,,,0.01,weatherlink.com 1.10,2013-05-24 23:16:00,
2013-05-24 19:31:00,53.1,36.0,30.06,South,175,0.0,-999.0,52,-99.99,,,0.01,weatherlink.com 1.10,2013-05-24 23:31:00,
2013-05-24 19:46:00,52.5,35.0,30.07,South,178,0.0,-999.0,52,-99.99,,,0.01,weatherlink.com 1.10,2013-05-24 23:46:00,
2013-05-24 20:01:00,51.7,35.0,30.07,South,172,0.0,-999.0,54,-99.99,,,0.01,weatherlink.com 1.10,2013-05-25 00:01:00,
2013-05-24 20:16:00,51.1,36.0,30.07,South,178,0.0,-999.0,56,-99.99,,,0.01,weatherlink.com 1.10,2013-05-25 00:16:00,
2013-05-24 20:31:00,50.5,35.0,30.08,SSE,155,0.0,-999.0,56,-99.99,,,0.01,weatherlink.com 1.10,2013-05-25 00:31:00,
2013-05-24 20:46:00,49.8,35.0,30.09,SSE,155,0.0,-999.0,58,-99.99,,,0.01,weatherlink.com 1.10,2013-05-25 00:46:00,
2013-05-24 21:01:00,49.2,35.0,30.09,SSE,157,0.0,-999.0,59,-99.99,,,0.01,weatherlink.com 1.10,2013-05-25 01:01:00,
2013-05-24 21:16:00,48.6,36.0,30.09,South,182,0.0,-999.0,61,-99.99,,,0.01,weatherlink.com 1.10,2013-05-25 01:16:00,
2013-05-24 21:31:00,48.5,35.0,30.10,West,281,0.0,-999.0,60,-99.99,,,0.01,weatherlink.com 1.10,2013-05-25 01:31:00,
2013-05-24 21:46:00,48.0,35.0,30.10,SSW,192,0.0,-999.0,61,-99.99,,,0.01,weatherlink.com 1.10,2013-05-25 01:46:00,
2013-05-24 22:01:00,47.6,36.0,30.11,SSE,151,0.0,-999.0,64,-99.99,,,0.01,weatherlink.com 1.10,2013-05-25 02:01:00,
2013-05-24 22:16:00,47.1,35.0,30.13,NW,322,0.0,-999.0,64,-99.99,,,0.01,weatherlink.com 1.10,2013-05-25 02:16:00,
2013-05-24 22:31:00,46.8,35.0,30.14,East,86,0.0,-999.0,65,-99.99,,,0.01,weatherlink.com 1.10,2013-05-25 02:31:00,
2013-05-24 22:46:00,46.4,36.0,30.15,SE,145,0.0,-999.0,66,-99.99,,,0.01,weatherlink.com 1.10,2013-05-25 02:46:00,
2013-05-24 23:01:00,46.0,35.0,30.15,SSE,165,0.0,-999.0,66,-99.99,,,0.01,weatherlink.com 1.10,2013-05-25 03:01:00,
2013-05-24 23:16:00,45.8,35.0,30.16,SSE,168,0.0,-999.0,66,-99.99,,,0.01,weatherlink.com 1.10,2013-05-25 03:16:00,
2013-05-24 23:31:00,45.7,35.0,30.15,SE,137,0.0,-999.0,67,-99.99,,,0.01,weatherlink.com 1.10,2013-05-25 03:31:00,
2013-05-24 23:46:00,45.4,35.0,30.15,South,178,0.0,-999.0,68,-99.99,,,0.01,weatherlink.com 1.10,2013-05-25 03:46:00,